Weather History for KTRI - May, 2013

Change the Weather History Date:

Tuesday, May 28, 2013

  Actual Average Record
Temperature  
Mean Temperature 71 °F 67 °F  
Max Temperature 85 °F 79 °F 92 °F (1941)
Min Temperature 56 °F 55 °F 37 °F (1961)
Degree Days  
Heating Degree Days 0 2  
Month to date heating degree days 113 105  
Since 1 July heating degree days 4314 4359  
Cooling Degree Days 6 3  
Month to date cooling degree days 45 52  
Year to date cooling degree days 51 63  
Growing Degree Days 20 (Base 50)    
Moisture  
Dew Point 58 °F    
Average Humidity 70    
Maximum Humidity 100    
Minimum Humidity 40    
Precipitation  
Precipitation 0.00 in 0.12 in 1.33 in (1990)
Month to date precipitation 4.09 3.41  
Year to date precipitation 24.69 17.00  
Snow  
Snow 0.00 in 0.00 in - ()
Month to date snowfall 0.0 0.0  
Since 1 July snowfall 9.2 13.3  
Snow Depth 0.00 in    
Sea Level Pressure  
Sea Level Pressure 30.10 in    
Wind  
Wind Speed 4 mph (West)    
Max Wind Speed 16 mph    
Max Gust Speed 23 mph    
Visibility 9 miles    
Events      
T = Trace of Precipitation, MM = Missing Value Source: NWS Daily Summary

Daily Weather History Graph

Daily Weather History Graph

Search for Another Location

Airport or City:

Trip Planner

Search our weather history database for the weather conditions in past years. The results will help you decide how hot, cold, wet, or windy it might be!

Date:

Astronomy

May. 28, 2013 Rise Set
Actual Time 6:14 AM EDT 8:39 PM EDT
Civil Twilight 5:44 AM EDT 9:09 PM EDT
Nautical Twilight 5:08 AM EDT 9:46 PM EDT
Astronomical Twilight 4:27 AM EDT 10:26 PM EDT
Moon No Moon Rise 9:58 AM EDT (5/28)
Length of Visible Light 15h 24m
Length of Day
14h 25m
Waning Gibbous, 83% of the Moon is Illuminated
May 28
Waning Gibbous
May 31
Last Quarter
Jun 8
New
Jun 16
First Quarter
Jun 23
Full

Hourly Weather History & Observations

Time (EDT) Temp. Heat Index Dew Point Humidity Pressure Visibility Wind Dir Wind Speed Gust Speed Precip Events Conditions
12:53 AM 61.0 °F - 60.1 °F 97% 30.11 in 8.0 mi Calm Calm - N/A   Scattered Clouds
1:53 AM 60.1 °F - 57.9 °F 93% 30.09 in 6.0 mi Calm Calm - N/A   Scattered Clouds
2:53 AM 59.0 °F - 57.9 °F 96% 30.09 in 7.0 mi Calm Calm - N/A   Scattered Clouds
3:30 AM 57.9 °F - 57.0 °F 97% 30.13 in 1.8 mi NE 3.5 mph - N/A   Scattered Clouds
3:37 AM 57.9 °F - 55.9 °F 93% 30.13 in 3.0 mi NNE 3.5 mph - N/A   Scattered Clouds
3:53 AM 57.9 °F - 55.9 °F 93% 30.06 in 3.0 mi North 3.5 mph - N/A   Scattered Clouds
4:53 AM 57.9 °F - 55.9 °F 93% 30.08 in 10.0 mi North 3.5 mph - N/A   Scattered Clouds
5:53 AM 57.0 °F - 55.0 °F 93% 30.11 in 10.0 mi Calm Calm - N/A   Scattered Clouds
6:53 AM 57.9 °F - 55.9 °F 93% 30.13 in 9.0 mi Calm Calm - N/A   Mostly Cloudy
7:53 AM 60.1 °F - 57.9 °F 93% 30.15 in 10.0 mi Calm Calm - N/A   Mostly Cloudy
8:53 AM 66.9 °F - 61.0 °F 81% 30.15 in 10.0 mi Calm Calm - N/A   Scattered Clouds
9:53 AM 73.0 °F - 61.0 °F 66% 30.16 in 10.0 mi Calm Calm - N/A   Scattered Clouds
10:53 AM 75.9 °F - 60.1 °F 58% 30.16 in 10.0 mi Calm Calm - N/A   Scattered Clouds
11:53 AM 79.0 °F - 60.1 °F 52% 30.15 in 10.0 mi Variable 3.5 mph - N/A   Scattered Clouds
12:53 PM 80.1 °F 80.6 °F 57.9 °F 47% 30.14 in 10.0 mi West 8.1 mph - N/A   Scattered Clouds
1:53 PM 82.0 °F 82.0 °F 57.9 °F 44% 30.12 in 10.0 mi West 12.7 mph - N/A   Scattered Clouds
2:53 PM 82.9 °F 82.1 °F 55.9 °F 39% 30.09 in 10.0 mi West 11.5 mph - N/A   Scattered Clouds
3:53 PM 84.0 °F 83.3 °F 57.0 °F 40% 30.09 in 10.0 mi WNW 8.1 mph - N/A   Scattered Clouds
4:53 PM 82.9 °F 82.1 °F 55.9 °F 39% 30.08 in 10.0 mi Variable 5.8 mph - N/A   Scattered Clouds
5:53 PM 82.9 °F 82.4 °F 57.0 °F 41% 30.06 in 10.0 mi West 6.9 mph - N/A   Scattered Clouds
6:53 PM 82.0 °F 82.1 °F 59.0 °F 45% 30.05 in 10.0 mi SW 5.8 mph - N/A   Scattered Clouds
7:53 PM 78.1 °F - 59.0 °F 52% 30.06 in 10.0 mi ESE 5.8 mph - N/A   Mostly Cloudy
8:53 PM 75.0 °F - 60.1 °F 60% 30.05 in 10.0 mi SSE 4.6 mph - N/A   Mostly Cloudy
9:53 PM 73.0 °F - 60.1 °F 64% 30.07 in 10.0 mi SSE 5.8 mph - N/A   Scattered Clouds
10:53 PM 72.0 °F - 59.0 °F 64% 30.08 in 10.0 mi SE 3.5 mph - N/A   Clear
11:53 PM 66.0 °F - 59.0 °F 78% 30.09 in 10.0 mi Calm Calm - N/A   Clear